Location: Unspecified
(0.0000°N, 0.0000°E)
Time: 05:13:03
(UTC+00:00)

Vanguard 2 - Pass Details

Date: 02 June 2024
Orbit: 552 x 2914 km, 32.9° (Epoch: 14 June)

Event Time Altitude Azimuth Distance (km) Brightness Sun altitude
Exits shadow 05:14:46 - 217° (SW) 5,926 11.5 -10.0°
Reaches altitude 10° 05:18:25 10° 208° (SSW) 5,353 11.4 -9.2°
Maximum altitude 05:32:21 31° 152° (SSE) 4,246 11.4 -5.9°
Drops below altitude 10° 05:46:26 10° 97° (E) 5,475 13.0 -2.7°
Sets 05:51:12 0° 87° (E) 6,258 13.8 -1.6°
